Regional Weather Roundup
Issued by NWS

Home | Current Version | Previous Version | Text Only | Print | Product List | Glossary On
Versions: 1 2 3 4 5 6 7 8 9 10 11 12 13 14 15 16 17 18 19 20 21 22 23 24 25 26 27
000
ASUS44 KJAN 201210
RWRMS

MISSISSIPPI HOURLY WEATHER ROUNDUP
NATIONAL WEATHER SERVICE JACKSON MS
600 AM CST TUE FEB 20 2018

NOTE: "FAIR: INDICATES FEW OR NO CLOUDS BELOW 12,000 FEET WITH NO
SIGNIFICANT WEATHER AND/OR OBSTRUCTIONS TO VISIBILITY.

MSZ001>002-007>008-010>013-018>021-025>028-034>036-201300-
NORTHWEST MISSISSIPPI

CITY           SKY/WX    TMP DP  RH WIND       PRES   REMARKS
BATESVILLE       N/A    N/A N/A N/A MISG        N/A
CLARKSDALE     MOCLDY    66  66 100 SE15G22   30.10R
CLEVELAND      FAIR      66  66 100 SE14      30.10R
GREENWOOD      FAIR      65  62  90 SE12      30.13R
6HR MIN TEMP:  65; 6HR MAX TEMP:  70;

GREENVILLE     FAIR      66  62  87 S13       30.09R
6HR MIN TEMP:  64; 6HR MAX TEMP:  68;

OXFORD         CLOUDY    63  59  88 S9        30.15S
TUNICA           N/A     64  61  88 S17G24    30.10R
WINONA         FAIR      63  63 100 SE6       30.15R
$$

MSZ003>006-009-014>017-022>024-029>033-037>039-201300-
NORTHEAST MISSISSIPPI

CITY           SKY/WX    TMP DP  RH WIND       PRES   REMARKS
ABERDEEN       CLOUDY    66  66 100 SE6G13    30.21R
COLUMBUS AFB   FAIR      63  63 100 SE8       30.20R
6HR MIN TEMP:  62; 6HR MAX TEMP:  68;

CORINTH        FAIR      63  61  94 S10G16    30.17R
GOLDN TRIANGLE CLOUDY    64  62  93 SE9       30.20R
STARKVILLE     PTSUNNY   61  61 100 SE6       30.19R
TUPELO         CLOUDY    65  61  87 SE9       30.18R
6HR MIN TEMP:  65; 6HR MAX TEMP:  67;

$$

MSZ040-058-201300-
CENTRAL MISSISSIPPI

CITY           SKY/WX    TMP DP  RH WIND       PRES   REMARKS
JACKSON INTL   FAIR      65  63  93 S8        30.13R
6HR MIN TEMP:  65; 6HR MAX TEMP:  69;

JACKSON HAWKNS MOCLDY    66  65  96 SE9       30.14R
6HR MIN TEMP:  66; 6HR MAX TEMP:  71; 6HR PCP: TRACE;

MADISON        PTSUNNY   64  63  94 CALM      30.14R
MERIDIAN KEY   MOCLDY    67  63  87 S10       30.18S
6HR MIN TEMP:  66; 6HR MAX TEMP:  70;

MERIDIAN NAS   CLOUDY    65  63  93 SE7       30.20R
6HR MIN TEMP:  65; 6HR MAX TEMP:  69;

RAYMOND        FAIR      68  64  88 SE5       30.13R
VICKSBURG VKS  MOSUNNY   70  64  83 S10G16    30.11S
$$

MSZ059>079-201300-
SOUTH MISSISSIPPI

CITY           SKY/WX    TMP DP  RH WIND       PRES   REMARKS
COLUMBIA       CLOUDY    70  66  88 SE6       30.19R
HATTIESBURG    CLOUDY    65  65 100 SE3       30.17R
6HR MIN TEMP:  61; 6HR MAX TEMP:  68;

LAUREL         CLOUDY    65  65 100 SE8       30.18R
MCCOMB         CLOUDY    69  66  90 SE14      30.13R
6HR MIN TEMP:  68; 6HR MAX TEMP:  70; 6HR PCP: TRACE;

NATCHEZ        CLOUDY    70  66  87 S14       30.11R
6HR MIN TEMP:  68; 6HR MAX TEMP:  71;

PINE BELT      FAIR      65  64  97 SE5       30.18R
6HR MIN TEMP:  64; 6HR MAX TEMP:  69;

$$

MSZ080>082-201300-
COASTAL MISSISSIPPI

CITY           SKY/WX    TMP DP  RH WIND       PRES   REMARKS
BILOXI         FAIR      69  68  94 SE10G20   30.17R
6HR MIN TEMP:  68; 6HR MAX TEMP:  69;

PASCAGOULA     MOCLDY    70  66  87 SE10      30.19R
6HR MIN TEMP:  67; 6HR MAX TEMP:  70;

GULFPORT       MOCLDY    70  69  97 SE15      30.16R
6HR MIN TEMP:  69; 6HR MAX TEMP:  70;

$$

LAZ007>009-015>016-023>026-201300-
NORTHEAST LOUISIANA

CITY           SKY/WX    TMP DP  RH WIND       PRES   REMARKS
BASTROP        CLOUDY    68  67  98 SE3       30.08R
TALLULAH/VBURG FAIR      67  66  97 SE12      30.10S
6HR MIN TEMP:  66; 6HR MAX TEMP:  69;

VIDALIA        PTSUNNY   69  66  89 SE10      30.09S
$$




USA.gov is the U.S. government's official web portal to all federal, state and local government web resources and services.